WTB35H TNCM-MDSD

Flight info

Callsign WTB35H
Flight time 1h 8m
Altitude 36000
Route BOPAT2 GOUDA L577 ANTEX/N0347F180 L577 GOSUB GOSUB2G
Aircraft A320/M-SDE3FGHIRWY/LB1

Departure

Time 2026-05-04 18:24
Airport Princess Juliana International Airport (TNCM)

Arrival

Time 2026-05-04 19:32
Airport Las Américas International Airport (MDSD)
Time Latitude Longitude Altitude Speed Heading
2026-05-04 17:49 18.04353 -63.11224 25 ft 0 kts 352°
2026-05-04 18:15 18.04316 -63.11219 21 ft 4 kts
2026-05-04 18:15 18.04281 -63.11254 21 ft 4 kts 64°
2026-05-04 18:15 18.04271 -63.11274 23 ft 4 kts 57°
2026-05-04 18:16 18.04254 -63.11295 23 ft 4 kts 33°
2026-05-04 18:16 18.04234 -63.11305 42 ft 4 kts 12°
2026-05-04 18:16 18.04210 -63.11307 24 ft 1 kts 351°
2026-05-04 18:17 18.04210 -63.11306 24 ft 0 kts 351°
2026-05-04 18:19 18.04236 -63.11385 21 ft 12 kts 259°
2026-05-04 18:19 18.04187 -63.11515 22 ft 22 kts 230°
2026-05-04 18:19 18.04081 -63.11662 21 ft 28 kts 239°
2026-05-04 18:20 18.04043 -63.11839 21 ft 13 kts 262°
2026-05-04 18:20 18.04041 -63.11854 21 ft 0 kts 262°
2026-05-04 18:21 18.04038 -63.11865 23 ft 4 kts 255°
2026-05-04 18:21 18.04000 -63.11934 21 ft 18 kts 233°
2026-05-04 18:21 18.03946 -63.11948 22 ft 5 kts 114°
2026-05-04 18:21 18.03954 -63.11870 24 ft 15 kts 81°
2026-05-04 18:22 18.03959 -63.11837 22 ft 3 kts 82°
2026-05-04 18:22 18.03960 -63.11832 22 ft 0 kts 82°
2026-05-04 18:22 18.03964 -63.11804 22 ft 6 kts 81°
2026-05-04 18:22 18.03966 -63.11790 22 ft 0 kts 82°
2026-05-04 18:23 18.03966 -63.11789 22 ft 0 kts 82°
2026-05-04 18:23 18.03967 -63.11783 22 ft 5 kts 82°
2026-05-04 18:23 18.04009 -63.11471 21 ft 88 kts 81°
2026-05-04 18:24 18.04138 -63.10574 97 ft 151 kts 84°
2026-05-04 18:24 18.04239 -63.09450 845 ft 156 kts 95°
2026-05-04 18:24 18.03757 -63.08460 1742 ft 159 kts 139°
2026-05-04 18:24 18.02693 -63.07945 2236 ft 181 kts 159°
2026-05-04 18:25 18.01373 -63.07645 2506 ft 206 kts 165°
2026-05-04 18:25 17.99953 -63.07349 2848 ft 230 kts 165°
2026-05-04 18:25 17.98305 -63.06991 3350 ft 250 kts 165°
2026-05-04 18:25 17.96576 -63.06616 4158 ft 256 kts 165°
2026-05-04 18:26 17.94777 -63.06424 4976 ft 266 kts 183°
2026-05-04 18:26 17.92998 -63.07057 5780 ft 278 kts 210°
2026-05-04 18:26 17.91671 -63.08527 6593 ft 290 kts 239°
2026-05-04 18:26 17.91164 -63.10582 7406 ft 297 kts 268°
2026-05-04 18:27 17.91233 -63.12754 8239 ft 300 kts 271°
2026-05-04 18:27 17.91333 -63.14945 9089 ft 301 kts 272°
2026-05-04 18:27 17.91437 -63.17149 9957 ft 301 kts 272°
2026-05-04 18:27 17.91539 -63.19386 10425 ft 317 kts 271°
2026-05-04 18:28 17.91640 -63.21764 10673 ft 337 kts 271°
2026-05-04 18:28 17.91744 -63.24257 11231 ft 345 kts 271°
2026-05-04 18:28 17.91846 -63.26786 11860 ft 350 kts 271°
2026-05-04 18:28 17.91949 -63.29361 12539 ft 353 kts 271°
2026-05-04 18:29 17.92053 -63.31951 13174 ft 357 kts 272°
2026-05-04 18:29 17.92158 -63.34570 13830 ft 360 kts 272°
2026-05-04 18:29 17.92265 -63.37214 14392 ft 363 kts 271°
2026-05-04 18:29 17.92372 -63.39865 15002 ft 364 kts 272°
2026-05-04 18:30 17.92577 -63.45180 16319 ft 364 kts 272°
2026-05-04 18:30 17.92677 -63.47834 16971 ft 364 kts 272°
2026-05-04 18:30 17.92777 -63.50495 17586 ft 365 kts 272°
2026-05-04 18:31 17.92878 -63.53137 18148 ft 368 kts 273°
2026-05-04 18:31 17.92984 -63.55852 18724 ft 369 kts 272°
2026-05-04 18:31 17.93089 -63.58550 19212 ft 370 kts 273°
2026-05-04 18:31 17.93190 -63.61224 19678 ft 374 kts 273°
2026-05-04 18:32 17.93295 -63.63976 20033 ft 380 kts 273°
2026-05-04 18:32 17.93453 -63.66768 20424 ft 385 kts 278°
2026-05-04 18:32 17.93942 -63.69547 20831 ft 389 kts 282°
2026-05-04 18:32 17.94475 -63.72337 21221 ft 394 kts 282°
2026-05-04 18:33 17.95011 -63.75177 21615 ft 398 kts 281°
2026-05-04 18:33 17.95549 -63.78045 22006 ft 402 kts 281°
2026-05-04 18:33 17.96091 -63.80938 22374 ft 407 kts 282°
2026-05-04 18:33 17.96641 -63.83871 22757 ft 411 kts 281°
2026-05-04 18:34 17.97198 -63.86834 23130 ft 416 kts 282°
2026-05-04 18:34 17.97762 -63.89832 23504 ft 419 kts 281°
2026-05-04 18:34 17.98327 -63.92838 23883 ft 422 kts 281°
2026-05-04 18:34 17.98894 -63.95873 24209 ft 425 kts 282°
2026-05-04 18:35 17.99465 -63.98930 24566 ft 426 kts 281°
2026-05-04 18:35 18.00035 -64.01990 24927 ft 428 kts 282°
2026-05-04 18:35 18.00607 -64.05059 25301 ft 429 kts 282°
2026-05-04 18:35 18.01185 -64.08143 25709 ft 429 kts 282°
2026-05-04 18:36 18.01754 -64.11179 26091 ft 430 kts 282°
2026-05-04 18:36 18.02330 -64.14267 26466 ft 431 kts 282°
2026-05-04 18:36 18.02906 -64.17370 26826 ft 432 kts 282°
2026-05-04 18:36 18.03480 -64.20473 27204 ft 433 kts 282°
2026-05-04 18:37 18.04054 -64.23586 27538 ft 434 kts 283°
2026-05-04 18:37 18.04629 -64.26701 27932 ft 435 kts 283°
2026-05-04 18:37 18.05207 -64.29816 28264 ft 436 kts 282°
2026-05-04 18:37 18.05790 -64.32953 28582 ft 438 kts 283°
2026-05-04 18:38 18.06375 -64.36110 28909 ft 440 kts 282°
2026-05-04 18:38 18.06958 -64.39257 29253 ft 441 kts 282°
2026-05-04 18:38 18.07546 -64.42434 29596 ft 442 kts 282°
2026-05-04 18:38 18.08132 -64.45601 29912 ft 444 kts 282°
2026-05-04 18:39 18.08721 -64.48799 30208 ft 445 kts 282°
2026-05-04 18:39 18.09310 -64.52001 30454 ft 447 kts 282°
2026-05-04 18:39 18.09898 -64.55208 30690 ft 448 kts 282°
2026-05-04 18:39 18.10490 -64.58441 30920 ft 450 kts 282°
2026-05-04 18:40 18.11084 -64.61679 31146 ft 452 kts 282°
2026-05-04 18:40 18.11678 -64.64923 31401 ft 453 kts 282°
2026-05-04 18:40 18.12274 -64.68170 31724 ft 451 kts 282°
2026-05-04 18:40 18.12859 -64.71370 32074 ft 450 kts 282°
2026-05-04 18:41 18.13454 -64.74618 32420 ft 449 kts 282°
2026-05-04 18:41 18.14033 -64.77779 32749 ft 448 kts 282°
2026-05-04 18:41 18.14618 -64.80988 33072 ft 447 kts 281°
2026-05-04 18:41 18.15202 -64.84200 33385 ft 446 kts 281°
2026-05-04 18:42 18.15783 -64.87390 33743 ft 445 kts 281°
2026-05-04 18:42 18.16362 -64.90579 34087 ft 444 kts 281°
2026-05-04 18:42 18.16939 -64.93740 34401 ft 442 kts 281°
2026-05-04 18:42 18.17523 -64.96949 34683 ft 442 kts 281°
2026-05-04 18:43 18.18033 -65.00133 34943 ft 441 kts 279°
2026-05-04 18:43 18.18307 -65.02242 35112 ft 441 kts 277°
2026-05-04 18:43 18.18654 -65.05469 35375 ft 440 kts 276°
2026-05-04 18:43 18.18951 -65.08663 35656 ft 439 kts 276°
2026-05-04 18:44 18.19239 -65.11860 35921 ft 438 kts 276°
2026-05-04 18:44 18.19855 -65.18221 36052 ft 432 kts 277°
2026-05-04 18:45 18.20519 -65.24480 36057 ft 430 kts 277°
2026-05-04 18:45 18.21202 -65.30726 36057 ft 429 kts 277°
2026-05-04 18:46 18.21876 -65.36959 36060 ft 428 kts 277°
2026-05-04 18:46 18.22530 -65.43147 36060 ft 428 kts 277°
2026-05-04 18:47 18.23186 -65.49380 36066 ft 428 kts 277°
2026-05-04 18:47 18.23845 -65.55606 36067 ft 428 kts 277°
2026-05-04 18:48 18.24501 -65.61848 36067 ft 428 kts 277°
2026-05-04 18:48 18.25144 -65.68064 36080 ft 427 kts 277°
2026-05-04 18:49 18.25787 -65.74279 36077 ft 427 kts 277°
2026-05-04 18:49 18.26436 -65.80489 36076 ft 427 kts 277°
2026-05-04 18:50 18.27081 -65.86698 36073 ft 426 kts 277°
2026-05-04 18:50 18.27725 -65.92893 36063 ft 426 kts 277°
2026-05-04 18:51 18.28363 -65.99099 36052 ft 426 kts 276°
2026-05-04 18:51 18.28996 -66.05298 36051 ft 426 kts 276°
2026-05-04 18:52 18.29628 -66.11454 36048 ft 426 kts 276°
2026-05-04 18:52 18.30258 -66.17650 36047 ft 426 kts 276°
2026-05-04 18:53 18.30894 -66.23948 36046 ft 438 kts 276°
2026-05-04 18:53 18.31547 -66.30401 36044 ft 449 kts 276°
2026-05-04 18:54 18.32214 -66.37007 36043 ft 456 kts 276°
2026-05-04 18:54 18.32874 -66.43604 36040 ft 457 kts 276°
2026-05-04 18:55 18.33539 -66.50259 36036 ft 457 kts 276°
2026-05-04 18:55 18.34543 -66.60243 36042 ft 457 kts 276°
2026-05-04 18:56 18.35204 -66.66903 36045 ft 457 kts 276°
2026-05-04 18:56 18.35857 -66.73519 36046 ft 457 kts 276°
2026-05-04 18:57 18.36519 -66.80172 36046 ft 457 kts 276°
2026-05-04 18:57 18.37170 -66.86814 36037 ft 450 kts 276°
2026-05-04 18:58 18.37802 -66.93330 36040 ft 445 kts 276°
2026-05-04 18:58 18.38435 -66.99811 36042 ft 445 kts 276°
2026-05-04 18:59 18.39067 -67.06292 36043 ft 445 kts 276°
2026-05-04 18:59 18.39697 -67.12770 36045 ft 444 kts 276°
2026-05-04 19:00 18.40320 -67.19209 36043 ft 444 kts 276°
2026-05-04 19:00 18.40941 -67.25684 36046 ft 445 kts 276°
2026-05-04 19:01 18.41559 -67.32178 36052 ft 445 kts 276°
2026-05-04 19:01 18.42175 -67.38682 36048 ft 445 kts 276°
2026-05-04 19:02 18.42795 -67.45160 36044 ft 445 kts 276°
2026-05-04 19:02 18.43417 -67.51637 36038 ft 444 kts 276°
2026-05-04 19:03 18.43717 -67.54827 35623 ft 442 kts 275°
2026-05-04 19:03 18.44014 -67.58005 35406 ft 431 kts 275°
2026-05-04 19:03 18.44306 -67.61113 35067 ft 423 kts 275°
2026-05-04 19:03 18.44597 -67.64185 34622 ft 420 kts 275°
2026-05-04 19:04 18.44885 -67.67230 34140 ft 417 kts 275°
2026-05-04 19:04 18.45169 -67.70263 33616 ft 416 kts 275°
2026-05-04 19:04 18.45451 -67.73286 33099 ft 413 kts 275°
2026-05-04 19:04 18.45728 -67.76284 32631 ft 409 kts 275°
2026-05-04 19:05 18.46003 -67.79252 32170 ft 406 kts 275°
2026-05-04 19:05 18.46277 -67.82195 31717 ft 403 kts 276°
2026-05-04 19:05 18.46551 -67.85126 31268 ft 399 kts 276°
2026-05-04 19:05 18.46821 -67.88028 30826 ft 396 kts 276°
2026-05-04 19:06 18.47088 -67.90902 30393 ft 393 kts 276°
2026-05-04 19:06 18.47355 -67.93763 29946 ft 390 kts 276°
2026-05-04 19:06 18.47595 -67.96361 29461 ft 386 kts 276°
2026-05-04 19:06 18.47850 -67.99156 28635 ft 381 kts 275°
2026-05-04 19:07 18.47889 -68.01942 27797 ft 378 kts 269°
2026-05-04 19:07 18.47824 -68.04699 26984 ft 375 kts 269°
2026-05-04 19:07 18.47763 -68.07466 26326 ft 371 kts 268°
2026-05-04 19:07 18.47705 -68.10153 26114 ft 372 kts 268°
2026-05-04 19:08 18.47651 -68.12867 26009 ft 371 kts 268°
2026-05-04 19:08 18.47597 -68.15588 26032 ft 374 kts 269°
2026-05-04 19:08 18.47542 -68.18328 26031 ft 375 kts 269°
2026-05-04 19:08 18.47484 -68.21082 26033 ft 374 kts 268°
2026-05-04 19:09 18.47425 -68.23800 26034 ft 372 kts 268°
2026-05-04 19:09 18.47365 -68.26499 26030 ft 370 kts 268°
2026-05-04 19:09 18.47307 -68.29223 26005 ft 369 kts 268°
2026-05-04 19:09 18.47249 -68.31829 25623 ft 367 kts 268°
2026-05-04 19:10 18.47188 -68.34516 25129 ft 367 kts 268°
2026-05-04 19:10 18.47127 -68.37204 24698 ft 365 kts 268°
2026-05-04 19:10 18.47067 -68.39882 24253 ft 363 kts 268°
2026-05-04 19:10 18.47006 -68.42532 23855 ft 361 kts 266°
2026-05-04 19:11 18.46945 -68.45183 23371 ft 361 kts 266°
2026-05-04 19:11 18.46884 -68.47816 22919 ft 358 kts 267°
2026-05-04 19:11 18.46822 -68.50434 22503 ft 355 kts 268°
2026-05-04 19:11 18.46761 -68.52952 22102 ft 348 kts 268°
2026-05-04 19:12 18.46701 -68.55492 21447 ft 342 kts 267°
2026-05-04 19:12 18.46593 -68.60362 20147 ft 333 kts 268°
2026-05-04 19:12 18.46538 -68.62777 19527 ft 328 kts 268°
2026-05-04 19:13 18.46484 -68.65166 18918 ft 324 kts 268°
2026-05-04 19:13 18.46428 -68.67516 18340 ft 320 kts 269°
2026-05-04 19:13 18.46372 -68.69825 17680 ft 316 kts 268°
2026-05-04 19:13 18.46315 -68.72127 17009 ft 313 kts 268°
2026-05-04 19:14 18.46256 -68.74414 16355 ft 311 kts 268°
2026-05-04 19:14 18.46197 -68.76684 15998 ft 311 kts 268°
2026-05-04 19:14 18.46143 -68.78966 15756 ft 312 kts 268°
2026-05-04 19:14 18.46082 -68.81225 15513 ft 311 kts 268°
2026-05-04 19:15 18.46006 -68.83494 15277 ft 309 kts 267°
2026-05-04 19:15 18.45924 -68.85762 15045 ft 309 kts 267°
2026-05-04 19:15 18.45839 -68.88015 14816 ft 306 kts 267°
2026-05-04 19:15 18.45755 -68.90252 14584 ft 307 kts 267°
2026-05-04 19:16 18.45674 -68.92496 14357 ft 307 kts 267°
2026-05-04 19:16 18.45594 -68.94753 14130 ft 309 kts 267°
2026-05-04 19:16 18.45515 -68.97015 13900 ft 309 kts 267°
2026-05-04 19:16 18.45436 -68.99271 13657 ft 308 kts 267°
2026-05-04 19:17 18.45355 -69.01524 13407 ft 308 kts 266°
2026-05-04 19:17 18.45274 -69.03772 13152 ft 307 kts 266°
2026-05-04 19:17 18.45195 -69.06016 12899 ft 307 kts 267°
2026-05-04 19:17 18.45118 -69.08262 12648 ft 306 kts 267°
2026-05-04 19:18 18.45038 -69.10505 12401 ft 306 kts 266°
2026-05-04 19:18 18.44954 -69.12742 12155 ft 306 kts 266°
2026-05-04 19:18 18.44871 -69.14978 11911 ft 306 kts 266°
2026-05-04 19:18 18.44788 -69.17211 11668 ft 305 kts 265°
2026-05-04 19:19 18.44706 -69.19450 11425 ft 305 kts 266°
2026-05-04 19:19 18.44626 -69.21665 11185 ft 301 kts 266°
2026-05-04 19:19 18.44547 -69.23853 10943 ft 296 kts 266°
2026-05-04 19:19 18.44469 -69.25998 10713 ft 291 kts 266°
2026-05-04 19:20 18.44404 -69.28124 10478 ft 287 kts 266°
2026-05-04 19:20 18.44364 -69.30208 10248 ft 283 kts 267°
2026-05-04 19:20 18.44337 -69.32241 10055 ft 277 kts 267°
2026-05-04 19:20 18.44314 -69.34232 9977 ft 268 kts 266°
2026-05-04 19:21 18.44286 -69.36198 9985 ft 268 kts 266°
2026-05-04 19:21 18.44257 -69.38156 9993 ft 267 kts 267°
2026-05-04 19:21 18.44227 -69.40111 9986 ft 267 kts 266°
2026-05-04 19:21 18.44283 -69.42072 9985 ft 269 kts 278°
2026-05-04 19:22 18.44867 -69.43936 9945 ft 271 kts 297°
2026-05-04 19:22 18.46008 -69.45510 9822 ft 272 kts 317°
2026-05-04 19:22 18.47485 -69.46761 9706 ft 273 kts 321°
2026-05-04 19:22 18.48970 -69.47998 9565 ft 273 kts 321°
2026-05-04 19:23 18.50450 -69.49244 9454 ft 273 kts 321°
2026-05-04 19:23 18.51937 -69.50499 9310 ft 272 kts 321°
2026-05-04 19:23 18.53413 -69.51747 9085 ft 271 kts 321°
2026-05-04 19:23 18.54883 -69.52988 8723 ft 271 kts 321°
2026-05-04 19:24 18.56361 -69.54236 8337 ft 273 kts 321°
2026-05-04 19:24 18.57844 -69.55489 7982 ft 273 kts 321°
2026-05-04 19:24 18.59320 -69.56737 7675 ft 270 kts 321°
2026-05-04 19:24 18.60822 -69.58006 7375 ft 270 kts 322°
2026-05-04 19:25 18.62210 -69.59179 7244 ft 259 kts 322°
2026-05-04 19:25 18.63563 -69.60321 7093 ft 245 kts 322°
2026-05-04 19:25 18.64822 -69.61494 6768 ft 241 kts 306°
2026-05-04 19:25 18.65441 -69.62727 6479 ft 237 kts 281°
2026-05-04 19:26 18.65526 -69.64408 6012 ft 232 kts 254°
2026-05-04 19:26 18.64891 -69.65929 5569 ft 220 kts 232°
2026-05-04 19:26 18.64032 -69.67254 5015 ft 221 kts 231°
2026-05-04 19:26 18.63185 -69.68559 4548 ft 216 kts 231°
2026-05-04 19:27 18.62362 -69.69825 4204 ft 209 kts 231°
2026-05-04 19:27 18.61548 -69.71079 3892 ft 206 kts 231°
2026-05-04 19:27 18.60679 -69.72259 3589 ft 201 kts 215°
2026-05-04 19:27 18.59448 -69.72805 3301 ft 190 kts 181°
2026-05-04 19:28 18.58184 -69.72521 3030 ft 187 kts 152°
2026-05-04 19:28 18.57009 -69.71934 2776 ft 188 kts 159°
2026-05-04 19:28 18.55795 -69.71491 2496 ft 176 kts 161°
2026-05-04 19:28 18.54685 -69.71116 2295 ft 159 kts 162°
2026-05-04 19:29 18.53666 -69.70769 2047 ft 149 kts 162°
2026-05-04 19:29 18.53036 -69.70550 1907 ft 140 kts 161°
2026-05-04 19:29 18.51814 -69.70119 1649 ft 136 kts 161°
2026-05-04 19:29 18.51224 -69.69909 1529 ft 135 kts 162°
2026-05-04 19:30 18.50337 -69.69590 1342 ft 134 kts 163°
2026-05-04 19:30 18.49452 -69.69270 1163 ft 134 kts 163°
2026-05-04 19:30 18.48577 -69.68951 994 ft 134 kts 160°
2026-05-04 19:30 18.47702 -69.68631 806 ft 132 kts 161°
2026-05-04 19:31 18.46825 -69.68317 646 ft 133 kts 161°
2026-05-04 19:31 18.45951 -69.68001 430 ft 134 kts 160°
2026-05-04 19:31 18.45072 -69.67660 249 ft 133 kts 161°
2026-05-04 19:31 18.44202 -69.67347 86 ft 130 kts 162°
2026-05-04 19:32 18.43418 -69.67063 67 ft 108 kts 162°
2026-05-04 19:32 18.43004 -69.66914 60 ft 22 kts 176°
2026-05-04 19:32 18.42938 -69.67011 67 ft 11 kts 270°
2026-05-04 19:32 18.42939 -69.67022 67 ft 0 kts 274°
2026-05-04 19:33 18.42940 -69.67045 66 ft 0 kts 274°
2026-05-04 19:33 18.42942 -69.67070 66 ft 8 kts 274°
2026-05-04 19:33 18.42948 -69.67132 64 ft 10 kts 276°
2026-05-04 19:33 18.42954 -69.67194 65 ft 1 kts 276°
2026-05-04 19:34 18.42954 -69.67197 65 ft 0 kts 276°
2026-05-04 19:34 18.42955 -69.67202 65 ft 1 kts 276°
2026-05-04 19:34 18.42955 -69.67210 65 ft 5 kts 276°
2026-05-04 19:34 18.42962 -69.67281 62 ft 10 kts 275°
2026-05-04 19:35 18.42921 -69.67345 62 ft 13 kts 185°
2026-05-04 19:35 18.42836 -69.67358 60 ft 13 kts 235°
2026-05-04 19:35 18.42843 -69.67417 57 ft 4 kts 300°
2026-05-04 19:35 18.42857 -69.67439 60 ft 4 kts 304°
2026-05-04 19:36 18.42872 -69.67460 61 ft 3 kts 305°
2026-05-04 19:36 18.42873 -69.67463 61 ft 0 kts 304°
2026-05-04 19:55 18.42870 -69.67458 56 ft 0 kts 304°
2026-05-04 19:55 18.42864 -69.67449 56 ft 0 kts 304°